Location: Penton Mewsey
(51.2167°N, 1.5167°W)
Time: 12:42:24
(UTC+00:00)

Cosmos 2237 Rocket - Pass Details

Date: 30 March 2020
Orbit: 834 x 851 km, 71.0° (Epoch: 27 May)

Event Time Altitude Azimuth Distance (km) Brightness Sun altitude
Rises 20:43:06 0° 250° (WSW) 3,378 5.9 -19.2°
Reaches altitude 10° 20:45:55 10° 263° (W) 2,448 5.3 -19.6°
Maximum altitude 20:50:36 26° 319° (NW) 1,583 4.4 -20.2°
Drops below altitude 10° 20:55:19 10° 16° (NNE) 2,465 4.9 -20.8°
Sets 20:58:11 0° 29° (NNE) 3,406 5.5 -21.1°
